| time (UTC) | temp C | wind direction | speed KPH | gust KPH | rain 1hr cm | rain 24hr cm | rain mn cm | humidity % | barometer mb |
| 20260503032725 | 1 | 289 | 0.0 | 0.0 | 0.00 | 0.00 | 0.00 | 82 | 1016.7 |
| 20260503032224 | 1 | 289 | 0.0 | 0.0 | 0.00 | 0.00 | 0.00 | 82 | 1016.7 |
| 20260503031720 | 1 | 289 | 0.0 | 0.0 | 0.00 | 0.00 | 0.00 | 83 | 1016.6 |
| 20260503031218 | 1 | 289 | 0.0 | 0.0 | 0.00 | 0.00 | 0.00 | 81 | 1016.9 |
| 20260503030714 | 1 | 289 | 0.0 | 0.0 | 0.00 | 0.00 | 0.00 | 81 | 1016.7 |
| 20260503030211 | 1 | 289 | 0.0 | 0.0 | 0.00 | 0.00 | 0.00 | 79 | 1016.6 |
| 20260503025708 | 1 | 289 | 0.0 | 0.0 | 0.00 | 0.00 | 0.00 | 78 | 1016.8 |
| 20260503025205 | 1 | 289 | 0.0 | 0.0 | 0.00 | 0.00 | 0.00 | 75 | 1016.8 |
| 20260503024701 | 1 | 289 | 0.0 | 0.0 | 0.00 | 0.00 | 0.00 | 73 | 1016.7 |
| 20260503024159 | 1 | 289 | 0.0 | 0.0 | 0.00 | 0.00 | 0.00 | 74 | 1016.8 |
| 20260503023656 | 2 | 289 | 0.0 | 0.0 | 0.00 | 0.00 | 0.00 | 69 | 1016.8 |
| 20260503023152 | 2 | 289 | 0.0 | 0.0 | 0.00 | 0.00 | 0.00 | 69 | 1016.9 |
| 20260503022649 | 2 | 289 | 0.0 | 0.0 | 0.00 | 0.00 | 0.00 | 68 | 1016.9 |
| 20260503022148 | 2 | 289 | 0.0 | 0.0 | 0.00 | 0.00 | 0.00 | 68 | 1017.0 |
| 20260503021645 | 2 | 289 | 0.0 | 0.0 | 0.00 | 0.00 | 0.00 | 67 | 1016.7 |
| 20260503021142 | 2 | 289 | 0.0 | 0.0 | 0.00 | 0.00 | 0.00 | 67 | 1016.9 |
| 20260503020639 | 2 | 289 | 0.0 | 0.0 | 0.00 | 0.00 | 0.00 | 64 | 1016.6 |
| 20260503020137 | 2 | 289 | 0.0 | 0.0 | 0.00 | 0.00 | 0.00 | 64 | 1016.7 |
| 20260503015633 | 3 | 289 | 0.0 | 0.0 | 0.00 | 0.00 | 0.00 | 66 | 1016.9 |
| 20260503015130 | 3 | 289 | 0.0 | 0.0 | 0.00 | 0.00 | 0.00 | 63 | 1016.9 |
| 20260503014626 | 3 | 289 | 0.0 | 0.0 | 0.00 | 0.00 | 0.00 | 62 | 1016.8 |
| 20260503014124 | 3 | 289 | 0.0 | 0.0 | 0.00 | 0.00 | 0.00 | 65 | 1016.8 |
| 20260503013621 | 3 | 289 | 0.0 | 0.0 | 0.00 | 0.00 | 0.00 | 66 | 1016.7 |
| 20260503013119 | 3 | 289 | 0.0 | 0.0 | 0.00 | 0.00 | 0.00 | 63 | 1016.6 |
| 20260503012616 | 3 | 289 | 0.0 | 0.0 | 0.00 | 0.00 | 0.00 | 62 | 1016.3 |
| 20260503012113 | 3 | 289 | 0.0 | 0.0 | 0.00 | 0.00 | 0.00 | 59 | 1016.4 |
| 20260503011609 | 4 | 289 | 0.0 | 0.0 | 0.00 | 0.00 | 0.00 | 60 | 1016.5 |
| 20260503011107 | 5 | 289 | 0.0 | 0.0 | 0.00 | 0.00 | 0.00 | 59 | 1016.4 |
| 20260503010602 | 5 | 289 | 0.0 | 0.0 | 0.00 | 0.00 | 0.00 | 56 | 1016.3 |
| 20260503010100 | 5 | 289 | 0.0 | 0.0 | 0.00 | 0.00 | 0.00 | 56 | 1016.5 |
| 20260503005557 | 6 | 289 | 0.0 | 0.0 | 0.00 | 0.00 | 0.00 | 55 | 1016.4 |
| 20260503005054 | 6 | 289 | 0.0 | 1.6 | 0.00 | 0.00 | 0.00 | 49 | 1016.4 |
| 20260503004550 | 6 | 264 | 0.0 | 1.6 | 0.00 | 0.00 | 0.00 | 48 | 1016.5 |
| 20260503004049 | 7 | 276 | 0.0 | 0.0 | 0.00 | 0.00 | 0.00 | 48 | 1016.4 |
| 20260503003545 | 7 | 281 | 0.0 | 0.0 | 0.00 | 0.00 | 0.00 | 46 | 1016.2 |
| 20260503003042 | 7 | 280 | 3.2 | 3.2 | 0.00 | 0.00 | 0.00 | 45 | 1016.3 |
| 20260503002539 | 7 | 286 | 3.2 | 3.2 | 0.00 | 0.00 | 0.00 | 45 | 1016.3 |
| 20260503002036 | 7 | 282 | 3.2 | 3.2 | 0.00 | 0.00 | 0.00 | 45 | 1016.2 |
| 20260503001532 | 7 | 296 | 3.2 | 3.2 | 0.00 | 0.00 | 0.00 | 44 | 1016.4 |
| 20260503001030 | 7 | 344 | 4.8 | 4.8 | 0.00 | 0.00 | 0.00 | 43 | 1016.2 |
| 20260503000527 | 8 | 305 | 3.2 | 4.8 | 0.00 | 0.00 | 0.00 | 43 | 1016.1 |
| 20260503000024 | 8 | 266 | 3.2 | 3.2 | 0.00 | 0.00 | 0.00 | 43 | 1016.3 |
| 20260502235520 | 8 | 309 | 4.8 | 8.0 | 0.00 | 0.00 | 0.00 | 42 | 1016.3 |
| 20260502235019 | 8 | 317 | 4.8 | 4.8 | 0.00 | 0.00 | 0.00 | 42 | 1016.3 |
| 20260502234514 | 8 | 346 | 11.3 | 12.9 | 0.00 | 0.00 | 0.00 | 42 | 1016.3 |
| 20260502234013 | 8 | 289 | 1.6 | 1.6 | 0.00 | 0.00 | 0.00 | 42 | 1016.3 |
| 20260502233512 | 8 | 295 | 0.0 | 0.0 | 0.00 | 0.00 | 0.00 | 43 | 1016.1 |
| 20260502233010 | 8 | 350 | 6.4 | 11.3 | 0.00 | 0.00 | 0.00 | 42 | 1016.1 |
| 20260502232506 | 8 | 325 | 4.8 | 4.8 | 0.00 | 0.00 | 0.00 | 42 | 1016.3 |
| 20260502232003 | 8 | 313 | 4.8 | 8.0 | 0.00 | 0.00 | 0.00 | 43 | 1016.4 |
| 20260502231500 | 8 | 272 | 1.6 | 3.2 | 0.00 | 0.00 | 0.00 | 43 | 1016.3 |
| 20260502230958 | 9 | 11 | 3.2 | 4.8 | 0.00 | 0.00 | 0.00 | 43 | 1016.4 |
| 20260502230456 | 10 | 313 | 4.8 | 4.8 | 0.00 | 0.00 | 0.00 | 40 | 1016.3 |
| 20260502225954 | 10 | 320 | 4.8 | 4.8 | 0.00 | 0.00 | 0.00 | 41 | 1016.4 |
| 20260502225449 | 11 | 296 | 3.2 | 4.8 | 0.00 | 0.00 | 0.00 | 41 | 1016.2 |
| 20260502224946 | 11 | 249 | 0.0 | 1.6 | 0.00 | 0.00 | 0.00 | 42 | 1016.2 |
| 20260502224443 | 11 | 68 | 1.6 | 1.6 | 0.00 | 0.00 | 0.00 | 40 | 1016.2 |
| 20260502223939 | 10 | 73 | 0.0 | 0.0 | 0.00 | 0.00 | 0.00 | 42 | 1016.2 |
| 20260502223437 | 10 | 0 | 4.8 | 9.7 | 0.00 | 0.00 | 0.00 | 41 | 1016.4 |
| 20260502222935 | 10 | 318 | 3.2 | 4.8 | 0.00 | 0.00 | 0.00 | 41 | 1016.4 |
| 20260502222433 | 8 | 293 | 3.2 | 3.2 | 0.00 | 0.00 | 0.00 | 46 | 1016.3 |
| 20260502221928 | 8 | 270 | 1.6 | 3.2 | 0.00 | 0.00 | 0.00 | 44 | 1016.4 |
| 20260502221425 | 8 | 354 | 3.2 | 4.8 | 0.00 | 0.00 | 0.00 | 45 | 1016.4 |
| 20260502220922 | 9 | 6 | 6.4 | 9.7 | 0.00 | 0.00 | 0.00 | 44 | 1016.4 |
| 20260502220418 | 8 | 274 | 4.8 | 4.8 | 0.00 | 0.00 | 0.00 | 45 | 1016.3 |
| 20260502215914 | 8 | 13 | 4.8 | 4.8 | 0.00 | 0.00 | 0.00 | 43 | 1016.3 |
| 20260502215412 | 8 | 45 | 3.2 | 3.2 | 0.00 | 0.00 | 0.00 | 44 | 1016.3 |
| 20260502214909 | 8 | 275 | 3.2 | 3.2 | 0.00 | 0.00 | 0.00 | 45 | 1016.3 |
| 20260502214405 | 9 | 301 | 9.7 | 12.9 | 0.00 | 0.00 | 0.00 | 43 | 1016.5 |
| 20260502213903 | 10 | 274 | 4.8 | 4.8 | 0.00 | 0.00 | 0.00 | 45 | 1016.6 |
| 20260502213359 | 10 | 255 | 0.0 | 3.2 | 0.00 | 0.00 | 0.00 | 45 | 1016.5 |
| 20260502212859 | 9 | 267 | 4.8 | 4.8 | 0.00 | 0.00 | 0.00 | 44 | 1016.3 |
| 20260502212356 | 8 | 311 | 3.2 | 4.8 | 0.00 | 0.00 | 0.00 | 46 | 1016.4 |
| 20260502211853 | 8 | 322 | 3.2 | 3.2 | 0.00 | 0.00 | 0.00 | 45 | 1016.5 |
| 20260502211349 | 8 | 6 | 4.8 | 4.8 | 0.00 | 0.00 | 0.00 | 43 | 1016.5 |
| 20260502210847 | 9 | 307 | 6.4 | 8.0 | 0.00 | 0.00 | 0.00 | 45 | 1016.4 |
| 20260502210343 | 10 | 334 | 4.8 | 4.8 | 0.00 | 0.00 | 0.00 | 46 | 1016.7 |
| 20260502205841 | 8 | 163 | 1.6 | 1.6 | 0.00 | 0.00 | 0.00 | 49 | 1016.6 |
| 20260502205337 | 8 | 67 | 6.4 | 8.0 | 0.00 | 0.00 | 0.00 | 46 | 1016.7 |
| 20260502204834 | 8 | 289 | 1.6 | 3.2 | 0.00 | 0.00 | 0.00 | 49 | 1016.6 |
| 20260502204331 | 8 | 57 | 1.6 | 1.6 | 0.00 | 0.00 | 0.00 | 45 | 1016.8 |
| 20260502203828 | 8 | 159 | 1.6 | 1.6 | 0.00 | 0.00 | 0.00 | 47 | 1016.6 |
| 20260502203326 | 8 | 330 | 1.6 | 1.6 | 0.00 | 0.00 | 0.00 | 50 | 1016.7 |
| 20260502202826 | 7 | 317 | 6.4 | 9.7 | 0.00 | 0.00 | 0.00 | 49 | 1016.9 |
| 20260502202324 | 8 | 328 | 3.2 | 3.2 | 0.00 | 0.00 | 0.00 | 50 | 1017.0 |
| 20260502201822 | 8 | 297 | 4.8 | 8.0 | 0.00 | 0.00 | 0.00 | 48 | 1016.9 |
| 20260502201318 | 8 | 319 | 4.8 | 4.8 | 0.00 | 0.00 | 0.00 | 47 | 1016.9 |
| 20260502200814 | 8 | 278 | 1.6 | 1.6 | 0.00 | 0.00 | 0.00 | 48 | 1017.3 |
| 20260502200310 | 8 | 56 | 3.2 | 3.2 | 0.00 | 0.00 | 0.00 | 47 | 1017.3 |
| 20260502195808 | 7 | 261 | 1.6 | 3.2 | 0.00 | 0.00 | 0.00 | 47 | 1017.4 |
| 20260502195305 | 8 | 330 | 8.0 | 11.3 | 0.00 | 0.00 | 0.00 | 47 | 1017.2 |
| 20260502194801 | 8 | 128 | 3.2 | 3.2 | 0.00 | 0.00 | 0.00 | 47 | 1017.3 |
| 20260502194258 | 8 | 153 | 1.6 | 3.2 | 0.00 | 0.00 | 0.00 | 47 | 1017.2 |
| 20260502193754 | 8 | 261 | 3.2 | 4.8 | 0.00 | 0.00 | 0.00 | 46 | 1017.3 |
| 20260502193252 | 8 | 3 | 9.7 | 11.3 | 0.00 | 0.00 | 0.00 | 44 | 1017.6 |
| 20260502192751 | 8 | 297 | 1.6 | 3.2 | 0.00 | 0.00 | 0.00 | 47 | 1017.6 |
| 20260502192249 | 8 | 58 | 4.8 | 4.8 | 0.00 | 0.00 | 0.00 | 48 | 1017.7 |
| 20260502191746 | 8 | 275 | 4.8 | 4.8 | 0.00 | 0.00 | 0.00 | 46 | 1017.4 |
| 20260502191244 | 8 | 319 | 1.6 | 3.2 | 0.00 | 0.00 | 0.00 | 48 | 1017.6 |
| 20260502190741 | 8 | 267 | 3.2 | 8.0 | 0.00 | 0.00 | 0.00 | 46 | 1017.7 |
| 20260502190239 | 7 | 324 | 8.0 | 8.0 | 0.00 | 0.00 | 0.00 | 47 | 1017.7 |
| 20260502185738 | 7 | 299 | 4.8 | 4.8 | 0.00 | 0.00 | 0.00 | 46 | 1018.1 |
| 20260502185235 | 7 | 92 | 6.4 | 9.7 | 0.00 | 0.00 | 0.00 | 46 | 1017.8 |
| 20260502184732 | 7 | 324 | 9.7 | 11.3 | 0.00 | 0.00 | 0.00 | 45 | 1017.8 |
| 20260502184227 | 8 | 258 | 9.7 | 12.9 | 0.00 | 0.00 | 0.00 | 43 | 1018.0 |
| 20260502183724 | 8 | 342 | 12.9 | 22.5 | 0.00 | 0.00 | 0.00 | 45 | 1017.7 |
| 20260502183220 | 8 | 357 | 1.6 | 1.6 | 0.00 | 0.00 | 0.00 | 47 | 1018.0 |
| 20260502182716 | 8 | 284 | 6.4 | 9.7 | 0.00 | 0.00 | 0.00 | 45 | 1018.1 |
| 20260502182211 | 9 | 316 | 6.4 | 12.9 | 0.00 | 0.00 | 0.00 | 43 | 1018.0 |
| 20260502181709 | 8 | 283 | 1.6 | 3.2 | 0.00 | 0.00 | 0.00 | 45 | 1018.1 |
| 20260502181208 | 8 | 274 | 1.6 | 3.2 | 0.00 | 0.00 | 0.00 | 46 | 1018.1 |
| 20260502180704 | 7 | 266 | 4.8 | 4.8 | 0.00 | 0.00 | 0.00 | 44 | 1018.1 |
| 20260502180202 | 9 | 232 | 8.0 | 9.7 | 0.00 | 0.00 | 0.00 | 43 | 1018.1 |
| 20260502170126 | 7 | 214 | 1.6 | 3.2 | 0.00 | 0.00 | 0.00 | 49 | 1018.6 |
| 20260502164113 | 7 | 347 | 4.8 | 4.8 | 0.00 | 0.00 | 0.00 | 46 | 1018.7 |
| 20260502163609 | 8 | 257 | 0.0 | 0.0 | 0.00 | 0.00 | 0.00 | 44 | 1018.8 |
| 20260502163105 | 8 | 161 | 4.8 | 8.0 | 0.00 | 0.00 | 0.00 | 44 | 1018.8 |
| 20260502162602 | 7 | 315 | 8.0 | 9.7 | 0.00 | 0.00 | 0.00 | 46 | 1018.7 |
| 20260502162059 | 7 | 355 | 6.4 | 8.0 | 0.00 | 0.00 | 0.00 | 47 | 1018.9 |
| 20260502161556 | 8 | 300 | 1.6 | 3.2 | 0.00 | 0.00 | 0.00 | 45 | 1019.0 |
| 20260502161054 | 6 | 358 | 3.2 | 3.2 | 0.00 | 0.00 | 0.00 | 51 | 1018.9 |
| 20260502160552 | 6 | 352 | 9.7 | 11.3 | 0.00 | 0.00 | 0.00 | 48 | 1018.9 |
| 20260502152004 | 7 | 92 | 1.6 | 1.6 | 0.00 | 0.00 | 0.00 | 49 | 1019.0 |
| 20260502151501 | 7 | 293 | 1.6 | 3.2 | 0.00 | 0.00 | 0.00 | 51 | 1019.0 |
| 20260502150958 | 7 | 35 | 1.6 | 1.6 | 0.00 | 0.00 | 0.00 | 50 | 1018.8 |
| 20260502150455 | 7 | 132 | 0.0 | 1.6 | 0.00 | 0.00 | 0.00 | 50 | 1018.7 |
| 20260502130341 | 3 | 335 | 6.4 | 8.0 | 0.00 | 0.00 | 0.00 | 74 | 1019.1 |
| 20260502123323 | 2 | 18 | 3.2 | 3.2 | 0.00 | 0.00 | 0.00 | 78 | 1019.1 |
| 20260502122821 | 2 | 46 | 3.2 | 3.2 | 0.00 | 0.00 | 0.00 | 78 | 1018.9 |
| 20260502122316 | 2 | 35 | 3.2 | 3.2 | 0.00 | 0.00 | 0.00 | 78 | 1019.2 |
| 20260502121815 | 2 | 2 | 3.2 | 3.2 | 0.00 | 0.00 | 0.00 | 79 | 1018.7 |
| 20260502121312 | 2 | 335 | 0.0 | 0.0 | 0.00 | 0.00 | 0.00 | 82 | 1018.6 |
| 20260502120809 | 1 | 358 | 0.0 | 0.0 | 0.00 | 0.00 | 0.00 | 84 | 1018.6 |
| 20260502120305 | 1 | 339 | 3.2 | 4.8 | 0.00 | 0.00 | 0.00 | 85 | 1018.8 |
| 20260502115803 | 1 | 359 | 0.0 | 0.0 | 0.00 | 0.00 | 0.00 | 86 | 1018.7 |
| 20260502115300 | 0 | 296 | 1.6 | 1.6 | 0.00 | 0.00 | 0.00 | 86 | 1018.7 |
| 20260502114756 | 0 | 346 | 3.2 | 3.2 | 0.00 | 0.00 | 0.00 | 87 | 1018.8 |
| 20260502114253 | 0 | 330 | 1.6 | 3.2 | 0.00 | 0.00 | 0.00 | 88 | 1018.6 |
| 20260502113750 | 0 | 290 | 1.6 | 1.6 | 0.00 | 0.00 | 0.00 | 89 | 1018.7 |
| 20260502113248 | 0 | 286 | 4.8 | 4.8 | 0.00 | 0.00 | 0.00 | 89 | 1018.6 |
| 20260502112746 | 0 | 318 | 1.6 | 3.2 | 0.00 | 0.00 | 0.00 | 90 | 1018.4 |
| 20260502112243 | 0 | 296 | 1.6 | 3.2 | 0.00 | 0.00 | 0.00 | 91 | 1018.4 |
| 20260502111740 | -1 | 310 | 0.0 | 0.0 | 0.00 | 0.00 | 0.00 | 91 | 1018.4 |
| 20260502111237 | -1 | 300 | 0.0 | 0.0 | 0.00 | 0.00 | 0.00 | 92 | 1018.3 |
| 20260502110735 | -1 | 299 | 0.0 | 0.0 | 0.00 | 0.00 | 0.00 | 92 | 1018.3 |
| 20260502110232 | -1 | 299 | 0.0 | 0.0 | 0.00 | 0.00 | 0.00 | 92 | 1018.3 |
| 20260502105730 | -1 | 299 | 0.0 | 0.0 | 0.00 | 0.00 | 0.00 | 92 | 1018.3 |
| 20260502105226 | -1 | 299 | 0.0 | 0.0 | 0.00 | 0.00 | 0.00 | 93 | 1018.1 |
| 20260502104724 | -1 | 299 | 0.0 | 0.0 | 0.00 | 0.00 | 0.00 | 93 | 1018.4 |
| 20260502104222 | -1 | 299 | 0.0 | 0.0 | 0.00 | 0.00 | 0.00 | 93 | 1018.2 |
| 20260502103719 | -1 | 299 | 0.0 | 0.0 | 0.00 | 0.00 | 0.00 | 92 | 1018.5 |
| 20260502103217 | -1 | 299 | 0.0 | 0.0 | 0.00 | 0.00 | 0.00 | 92 | 1018.2 |
| 20260502102713 | -1 | 299 | 0.0 | 0.0 | 0.00 | 0.00 | 0.00 | 92 | 1018.3 |
| 20260502102210 | -1 | 299 | 0.0 | 0.0 | 0.00 | 0.00 | 0.00 | 92 | 1018.3 |
| 20260502101708 | -1 | 299 | 0.0 | 0.0 | 0.00 | 0.00 | 0.00 | 92 | 1018.2 |
| 20260502101206 | -1 | 299 | 0.0 | 0.0 | 0.00 | 0.00 | 0.00 | 92 | 1018.2 |
| 20260502100704 | -1 | 299 | 0.0 | 0.0 | 0.00 | 0.00 | 0.00 | 92 | 1018.0 |
| 20260502100202 | -1 | 299 | 0.0 | 0.0 | 0.00 | 0.00 | 0.00 | 92 | 1018.1 |
| 20260502091136 | -1 | 299 | 0.0 | 0.0 | 0.00 | 0.00 | 0.00 | 91 | 1018.2 |
| 20260502090633 | -1 | 299 | 0.0 | 0.0 | 0.00 | 0.00 | 0.00 | 90 | 1017.6 |
| 20260502090130 | -1 | 299 | 0.0 | 0.0 | 0.00 | 0.00 | 0.00 | 90 | 1017.7 |
| 20260502071528 | 0 | 246 | 0.0 | 0.0 | 0.00 | 0.00 | 0.00 | 88 | 1017.7 |
| 20260502071026 | 0 | 246 | 0.0 | 0.0 | 0.00 | 0.00 | 0.00 | 88 | 1017.6 |
| 20260502070523 | 0 | 246 | 0.0 | 0.0 | 0.00 | 0.00 | 0.00 | 88 | 1017.6 |
| 20260502070022 | 0 | 246 | 0.0 | 0.0 | 0.00 | 0.00 | 0.00 | 87 | 1017.6 |
| 20260502065520 | 0 | 246 | 0.0 | 0.0 | 0.00 | 0.00 | 0.00 | 87 | 1017.7 |
| 20260502065017 | 0 | 246 | 0.0 | 0.0 | 0.00 | 0.00 | 0.00 | 86 | 1017.7 |
| 20260502064515 | 0 | 246 | 0.0 | 0.0 | 0.00 | 0.00 | 0.00 | 86 | 1017.7 |
| 20260502064012 | 0 | 246 | 0.0 | 0.0 | 0.00 | 0.00 | 0.00 | 86 | 1017.7 |
| 20260502063510 | 1 | 246 | 0.0 | 0.0 | 0.00 | 0.00 | 0.00 | 86 | 1017.7 |
| 20260502063008 | 1 | 246 | 0.0 | 0.0 | 0.00 | 0.00 | 0.00 | 85 | 1017.6 |
| 20260502062504 | 1 | 246 | 0.0 | 0.0 | 0.00 | 0.00 | 0.00 | 84 | 1017.8 |
| 20260502062003 | 1 | 246 | 0.0 | 0.0 | 0.00 | 0.00 | 0.00 | 82 | 1017.8 |
| 20260502061500 | 1 | 246 | 0.0 | 0.0 | 0.00 | 0.00 | 0.00 | 81 | 1017.8 |
| 20260502060956 | 2 | 246 | 0.0 | 0.0 | 0.00 | 0.00 | 0.00 | 80 | 1017.8 |
| 20260502060451 | 2 | 246 | 0.0 | 0.0 | 0.00 | 0.00 | 0.00 | 80 | 1017.8 |
| 20260502055949 | 2 | 246 | 0.0 | 0.0 | 0.00 | 0.00 | 0.00 | 80 | 1017.8 |
| 20260502055446 | 2 | 246 | 0.0 | 1.6 | 0.00 | 0.00 | 0.00 | 81 | 1017.7 |
| 20260502054940 | 2 | 246 | 0.0 | 0.0 | 0.00 | 0.00 | 0.00 | 79 | 1017.8 |
| 20260502054438 | 2 | 246 | 0.0 | 0.0 | 0.00 | 0.00 | 0.00 | 76 | 1017.8 |
| 20260502053935 | 3 | 246 | 0.0 | 0.0 | 0.00 | 0.00 | 0.00 | 75 | 1018.1 |
| 20260502053432 | 3 | 246 | 0.0 | 0.0 | 0.00 | 0.00 | 0.00 | 74 | 1018.1 |
| 20260502052930 | 3 | 246 | 0.0 | 0.0 | 0.00 | 0.00 | 0.00 | 72 | 1018.0 |
| 20260502052428 | 3 | 239 | 0.0 | 1.6 | 0.00 | 0.00 | 0.00 | 70 | 1018.0 |
| 20260502051926 | 3 | 213 | 0.0 | 1.6 | 0.00 | 0.00 | 0.00 | 70 | 1017.8 |
| 20260502051424 | 3 | 280 | 3.2 | 4.8 | 0.00 | 0.00 | 0.00 | 73 | 1018.1 |
| 20260502050920 | 3 | 329 | 0.0 | 0.0 | 0.00 | 0.00 | 0.00 | 74 | 1017.8 |
| 20260502050417 | 3 | 329 | 0.0 | 0.0 | 0.00 | 0.00 | 0.00 | 74 | 1017.6 |
| 20260502045914 | 3 | 330 | 0.0 | 0.0 | 0.00 | 0.00 | 0.00 | 74 | 1018.0 |
| 20260502045411 | 3 | 329 | 0.0 | 0.0 | 0.00 | 0.00 | 0.00 | 73 | 1017.7 |
| 20260502044908 | 3 | 329 | 0.0 | 0.0 | 0.00 | 0.00 | 0.00 | 72 | 1017.6 |
| 20260502044403 | 3 | 330 | 0.0 | 0.0 | 0.00 | 0.00 | 0.00 | 70 | 1017.7 |
| 20260502043901 | 4 | 292 | 0.0 | 0.0 | 0.00 | 0.00 | 0.00 | 69 | 1017.6 |
| 20260502043358 | 4 | 282 | 0.0 | 0.0 | 0.00 | 0.00 | 0.00 | 68 | 1017.8 |
| 20260502042858 | 4 | 306 | 0.0 | 0.0 | 0.00 | 0.00 | 0.00 | 68 | 1017.4 |
| 20260502042355 | 4 | 302 | 0.0 | 1.6 | 0.00 | 0.00 | 0.00 | 68 | 1017.5 |
| 20260502041852 | 4 | 307 | 0.0 | 1.6 | 0.00 | 0.00 | 0.00 | 68 | 1017.4 |
| 20260502041350 | 4 | 290 | 1.6 | 3.2 | 0.00 | 0.00 | 0.00 | 68 | 1017.4 |
| 20260502040847 | 4 | 284 | 1.6 | 3.2 | 0.00 | 0.00 | 0.00 | 68 | 1017.3 |
| 20260502040344 | 4 | 84 | 0.0 | 1.6 | 0.00 | 0.00 | 0.00 | 69 | 1017.4 |
| 20260502035840 | 4 | 39 | 0.0 | 1.6 | 0.00 | 0.05 | 0.05 | 67 | 1017.2 |
| 20260502035337 | 4 | 354 | 4.8 | 4.8 | 0.00 | 0.05 | 0.05 | 67 | 1017.1 |
| 20260502034834 | 4 | 358 | 0.0 | 0.0 | 0.00 | 0.05 | 0.05 | 68 | 1017.0 |
| 20260502034332 | 4 | 347 | 3.2 | 3.2 | 0.00 | 0.05 | 0.05 | 69 | 1017.0 |
| 20260502033831 | 4 | 94 | 1.6 | 3.2 | 0.00 | 0.05 | 0.05 | 69 | 1016.9 |
| 20260502033328 | 4 | 61 | 1.6 | 1.6 | 0.00 | 0.05 | 0.05 | 69 | 1017.1 |